Location: Unspecified
(0.0000°N, 0.0000°E)
Time: 06:04:06
(UTC+00:00)

ISS - Pass Details

Date: 14 August 2022
Orbit: 412 x 420 km, 51.6° (Epoch: 13 August)

Event Time Altitude Azimuth Distance (km) Brightness Sun altitude
Exits shadow 04:57:03 - 182° (S) 1,843 -0.7 -16.4°
Reaches altitude 10° 04:58:10 10° 171° (S) 1,492 -1.0 -16.1°
Maximum altitude 05:00:31 18° 126° (SE) 1,108 -1.1 -15.5°
Drops below altitude 10° 05:02:51 10° 81° (E) 1,485 0.4 -15.0°
Sets 05:05:24 0° 61° (ENE) 2,343 1.7 -14.4°
